Weather in Turgenevo

Russia / Saratov Oblast     51°54′35″N   44°57′56″E
temp.,
°C
wind,
m/s
gust,
m/s
humid.,
%
clouds,
%
prec.,
mm/h
press.,
hPa
HPBL,
m
13 april, tue
tue1301:00+10ese4117061 0.0 1031172
04:00+8ese4117180 0.0 1031166
07:00+7ese4117029 0.0 1031172
10:00+14ese610465 0.0 1031415
13:00+17ese68365 0.0 1030842
16:00+19se6830100 0.0 10291315
19:00+15ese3647100 0.0 102891
22:00+11ese4116199 0.0 1028171
14 april, wed
wed1401:00+9ese411645 0.0 1028169
04:00+7ese48682 0.0 1027119
07:00+7e411700 0.0 1026170
10:00+13ese69470 0.0 1025423
13:00+17ese68360 0.0 1023963
16:00+18se68300 0.0 10221502
19:00+15ese36455 0.0 1021105
22:00+11ese496291 0.0 1021136
15 april, thu
thu1501:00+10ese49715 0.0 1020129
04:00+8ese477918 0.0 101999
07:00+8e3880100 0.0 1019132
10:00+14ese5957100 0.0 1018425
13:00+18ese574468 0.0 1017892
16:00+20se563690 0.0 10161618
19:00+17e3450100 0.0 101561
22:00+13e3659100 0.0 101584
16 april, fri
fri1601:00+12ese336580 0.0 101523
04:00+10e2269100 0.0 101512
07:00+10e2270100 0.0 101522
10:00+15ese3454100 0.0 1015371
13:00+19ese4438100 0.0 10151410
16:00+19e3332100 0.0 10152224
19:00+17ese224468 0.0 101526
22:00+13e2252100 0.0 101610
17 april, sat
sat1701:00+12ne3363100 0.0 101644
04:00+10ne4884100 0.0 1018184
07:00+8ne510898 0.0 1019315
10:00+12ene786946 0.0 1019696
13:00+13ene895746 0.0 10201025
16:00+13ene784693 0.0 10211399
19:00+11ene710445 0.0 10221121
22:00+7ene713510 0.0 1024650